KI5IZM-13 Weather Reports


Display with metric or nautical units.
time (UTC)temp
F
wind
direction
speed
MPH
gust
MPH
rain 1hr
in
rain 24hr
in
rain mn
in
humidity
%
barometer
mb
20260906173017 88 182 2.0 7.0 0.00 0.02 0.00 69 1015.4
20260906171514 88 174 1.0 6.0 0.00 0.02 0.00 71 1015.6
20260906170013 88 124 0.0 8.0 0.00 0.02 0.00 74 1015.6
20260906164512 88 153 1.0 8.0 0.00 0.02 0.00 74 1015.7
20260906163025 86 98 2.0 7.0 0.00 0.02 0.00 73 1015.9
20260906161516 85 127 1.0 5.0 0.00 0.02 0.00 80 1015.9
20260906160017 84 119 2.0 7.0 0.00 0.02 0.00 82 1015.9
20260906154519 84 126 1.0 5.0 0.00 0.02 0.00 85 1015.9
20260906153013 83 150 2.0 6.0 0.00 0.02 0.00 87 1015.8
20260906151518 81 98 0.0 5.0 0.00 0.02 0.00 89 1015.7
20260906150040 79 142 0.0 3.0 0.00 0.02 0.00 92 1015.8
20260906144532 78 93 0.0 4.0 0.00 0.02 0.00 93 1016.0
20260906143025 78 134 1.0 4.0 0.00 0.02 0.00 93 1016.0
20260906141529 77 137 1.0 4.0 0.00 0.02 0.00 95 1015.9
20260906140023 76 158 2.0 4.0 0.00 0.02 0.00 96 1015.9
20260906134527 75 148 0.0 1.0 0.00 0.02 0.00 97 1015.6
20260906133027 74 128 0.0 0.0 0.00 0.02 0.00 97 1015.4
20260906131529 74 86 0.0 0.0 0.00 0.02 0.00 97 1015.3
20260906130033 73 65 0.0 0.0 0.00 0.02 0.00 97 1015.2
20260906124527 73 148 0.0 0.0 0.00 0.02 0.00 97 1015.2
20260906123026 73 154 0.0 0.0 0.00 0.02 0.00 97 1015.3
20260906121527 73 165 0.0 0.0 0.00 0.02 0.00 96 1015.3
20260906120018 73 164 0.0 0.0 0.00 0.02 0.00 96 1015.0
20260906114533 73 165 0.0 0.0 0.00 0.02 0.00 96 1014.6
20260906113027 73 165 0.0 0.0 0.00 0.02 0.00 96 1014.4
20260906111507 73 165 0.0 0.0 0.00 0.02 0.00 96 1014.3
20260906110020 73 165 0.0 0.0 0.00 0.02 0.00 96 1014.2
20260906104523 74 165 0.0 0.0 0.00 0.02 0.00 96 1014.1
20260906103025 74 165 0.0 0.0 0.00 0.02 0.00 96 1014.0
20260906101529 74 165 0.0 0.0 0.00 0.02 0.00 96 1013.9
20260906100010 74 165 0.0 0.0 0.00 0.02 0.00 96 1013.7
20260906094526 74 165 0.0 0.0 0.00 0.02 0.00 96 1013.6
20260906093019 74 165 0.0 0.0 0.00 0.02 0.00 96 1013.8
20260906091534 75 165 0.0 0.0 0.00 0.02 0.00 96 1013.9
20260906090030 75 165 0.0 0.0 0.00 0.02 0.00 96 1013.8
20260906084514 75 165 0.0 0.0 0.00 0.02 0.00 96 1013.8
20260906083016 75 134 0.0 0.0 0.00 0.02 0.00 96 1013.7
20260906081541 75 153 0.0 1.0 0.00 0.02 0.00 96 1013.8
20260906080030 74 240 0.0 0.0 0.00 0.02 0.00 96 1014.0
20260906074533 74 240 0.0 0.0 0.00 0.02 0.00 95 1014.1
20260906073016 74 240 0.0 0.0 0.00 0.02 0.00 95 1014.0
20260906071523 74 240 0.0 0.0 0.00 0.02 0.00 95 1013.9
20260906070029 74 240 0.0 0.0 0.00 0.02 0.00 95 1013.9
20260906064529 75 240 0.0 0.0 0.00 0.02 0.00 95 1013.9
20260906063033 75 240 0.0 0.0 0.00 0.02 0.00 95 1013.8
20260906061531 75 240 0.0 1.0 0.00 0.02 0.00 95 1013.6
20260906060027 75 191 0.0 0.0 0.00 0.02 0.00 95 1013.8
20260906054527 75 191 0.0 0.0 0.00 0.02 0.00 95 1013.8
20260906053011 75 191 0.0 0.0 0.00 0.02 0.00 95 1013.8
20260906051514 75 191 0.0 0.0 0.00 0.02 0.00 95 1013.6
20260906050020 75 191 0.0 0.0 0.00 0.02 0.00 95 1013.3
20260906044533 75 191 0.0 0.0 0.00 0.02 0.02 95 1013.5
20260906043003 75 191 0.0 0.0 0.00 0.02 0.02 95 1013.5
20260906041510 75 129 0.0 0.0 0.00 0.02 0.02 94 1013.5
20260906040019 76 129 0.0 0.0 0.00 0.02 0.02 94 1013.6
20260906034521 76 129 0.0 0.0 0.00 0.02 0.02 94 1014.0
20260906033028 76 129 0.0 1.0 0.00 0.02 0.02 94 1013.8
20260906031509 76 259 0.0 0.0 0.00 0.02 0.02 94 1013.5
20260906030013 76 259 0.0 0.0 0.00 0.02 0.02 93 1013.4
20260906024519 77 259 0.0 1.0 0.00 0.02 0.02 93 1013.3
20260906023024 77 139 0.0 1.0 0.00 0.02 0.02 93 1013.4
20260906021530 77 93 0.0 2.0 0.00 0.02 0.02 93 1013.6
20260906020008 78 165 0.0 1.0 0.00 0.02 0.02 93 1013.7
20260906014514 78 102 0.0 2.0 0.00 0.02 0.02 93 1013.7
20260906013020 78 122 0.0 0.0 0.00 0.02 0.02 93 1013.5
20260906011524 78 108 0.0 2.0 0.00 0.02 0.02 92 1013.7
20260906010029 78 140 0.0 4.0 0.00 0.02 0.02 92 1013.4
20260906004512 78 146 0.0 3.0 0.00 0.02 0.02 91 1013.2
20260906003023 79 130 0.0 4.0 0.00 0.02 0.02 91 1013.2
20260906001528 79 136 1.0 5.0 0.00 0.02 0.02 92 1013.5
20260906000028 79 57 0.0 4.0 0.00 0.02 0.02 91 1013.6
20260905234531 79 147 0.0 3.0 0.00 0.02 0.02 90 1013.2
20260905233013 79 247 0.0 4.0 0.00 0.02 0.02 90 1013.5
20260905231518 79 132 1.0 2.0 0.00 0.02 0.02 90 1013.5
20260905230003 79 81 0.0 0.0 0.00 0.02 0.02 90 1013.3
20260905224506 79 90 0.0 3.0 0.00 0.02 0.02 90 1013.0
20260905223028 79 123 1.0 3.0 0.00 0.02 0.02 90 1013.0
20260905221534 78 133 0.0 1.0 0.01 0.02 0.02 91 1013.1
20260905220028 78 117 0.0 0.0 0.02 0.02 0.02 91 1013.4
20260905214505 79 134 0.0 0.0 0.02 0.02 0.02 90 1013.6
20260905213005 79 153 0.0 5.0 0.02 0.02 0.02 89 1013.3
20260905211534 79 138 0.0 3.0 0.01 0.01 0.01 87 1013.2
20260905210027 79 187 0.0 5.0 0.00 0.00 0.00 86 1013.4
20260905204528 80 134 1.0 7.0 0.00 0.00 0.00 84 1014.0
20260905203008 82 167 2.0 8.0 0.00 0.00 0.00 80 1014.6
20260905201511 83 141 2.0 8.0 0.00 0.00 0.00 77 1014.6
20260905200020 84 155 4.0 16.0 0.00 0.00 0.00 75 1013.8
20260905194523 89 114 5.0 15.0 0.00 0.00 0.00 68 1013.5
20260905193028 92 264 0.0 4.0 0.00 0.00 0.00 62 1013.3
20260905191509 93 225 0.0 7.0 0.00 0.00 0.00 59 1013.3
20260905190010 92 251 1.0 6.0 0.00 0.00 0.00 62 1013.4
20260905184518 92 96 0.0 3.0 0.00 0.00 0.00 60 1013.7
20260905183023 93 224 0.0 5.0 0.00 0.00 0.00 60 1013.8
20260905181527 92 225 0.0 8.0 0.00 0.00 0.00 62 1014.2
20260905180035 91 271 1.0 4.0 0.00 0.00 0.00 63 1014.4
20260905174515 91 292 0.0 2.0 0.00 0.00 0.00 63 1014.9